Location: Lourdes
(43.1000°N, 0.0500°W)
Time: 04:01:18
(UTC+00:00)

Cosmos 1151 Rocket - Pass Details

Date: 19 April 2021
Orbit: 593 x 615 km, 82.5° (Epoch: 18 May)

Event Time Altitude Azimuth Distance (km) Brightness Sun altitude
Exits shadow 00:58:33 11° 326° (NW) 1,900 5.9 -34.0°
Drops below altitude 10° 00:58:41 10° 328° (NNW) 1,932 6.0 -34.0°
Sets 01:01:49 0° 351° (N) 2,867 7.3 -33.9°
